[[{"header":{"parameterUnit":"m.s-1","parameterCategory":1,"la1":30.2991,"la2":30.254,"lo1":-89.0895,"lo2":-89.0444,"dy":0.0017,"dx":0.0017,"nx":28,"ny":28,"refTime":"2024-05-08T03:00:00:Z","depth":0,"parameterNumber":2,"parameterNumberName":"U-component_of_WINDS"},"data":[0,0,0,0,0,0,0,0,0,0,0,0,0,0,0,0,0,0,0,0,0,0,0,0,0,0,0,0,0,0,0,0,0,0,0,0,0,0,0,0,0,0,0,0,0,0,0,0,0,0,0,0,0,0,0,0,0,0,-1.7617,-1.7617,0,-1.7593,-1.7592,-1.7592,-1.755,-1.755,-1.7549,-1.7548,-1.7523,-1.7523,-1.7523,0,0,0,0,0,0,0,0,0,0,0,0,0,-1.7628,-1.7628,-1.7617,-1.7617,-1.7616,-1.7593,-1.7592,-1.7592,-1.7551,-1.755,-1.7549,-1.7548,-1.7523,-1.7523,-1.7523,0,0,0,0,0,0,0,0,0,0,0,0,0,-1.7615,-1.7628,-1.7617,-1.7593,-1.759,-1.7593,-1.7592,-1.7592,-1.7551,-1.755,-1.7548,-1.7547,-1.7523,-1.7523,-1.7523,-1.7548,0,0,-1.7524,-1.7524,0,0,0,0,0,0,0,0,-1.7616,-1.7615,-1.7597,-1.7594,-1.7592,-1.7573,-1.7587,-1.7577,-1.7551,-1.7566,-1.7548,-1.7547,-1.7541,-1.754,-1.7538,-1.7546,-1.7545,-1.7524,-1.7524,-1.7524,-1.7524,0,0,0,0,0,0,0,-1.7617,-1.7616,-1.7607,-1.7596,-1.7593,-1.7583,-1.758,-1.7585,-1.756,-1.7564,-1.7561,-1.7559,-1.7539,-1.7538,-1.7537,-1.7545,-1.7524,-1.7524,-1.7524,-1.7524,-1.7573,-1.7574,0,0,0,0,0,0,-1.7621,-1.7617,-1.7608,-1.7607,-1.7601,-1.7584,-1.7581,-1.758,-1.756,-1.7556,-1.756,-1.7557,-1.7538,-1.7537,-1.7536,-1.7562,-1.7524,-1.7524,-1.7524,-1.7571,-1.7573,-1.7574,0,0,0,0,0,0,-1.7622,-1.7621,-1.7609,-1.7611,-1.7609,-1.7585,-1.7585,-1.7581,-1.7579,-1.7557,-1.7552,-1.7563,-1.7537,-1.7535,-1.7545,-1.7561,-1.7524,-1.7524,-1.757,-1.7572,-1.7573,-1.7615,0,0,0,0,0,0,-1.7622,-1.7621,-1.763,-1.7611,-1.7609,-1.7619,-1.7586,-1.7581,-1.7579,-1.7575,-1.7558,-1.7554,-1.7536,-1.7545,-1.7545,-1.756,-1.7524,-1.7568,-1.7571,-1.7573,-1.7612,-1.7618,-1.7624,0,0,0,0,0,-1.7623,-1.7643,-1.7631,-1.763,-1.7619,-1.762,-1.7618,-1.7597,-1.758,-1.7589,-1.7575,-1.7555,-1.7559,-1.7546,-1.7546,-1.7561,-1.7567,-1.757,-1.7573,-1.761,-1.7617,-1.7623,0,0,0,0,0,0,-1.7664,-1.764,-1.7626,-1.7641,-1.7633,-1.7613,-1.7623,-1.7605,-1.7601,-1.7598,-1.7572,-1.7568,-1.7581,-1.7572,-1.7558,-1.7584,-1.756,-1.7563,-1.7589,-1.7595,-1.7601,-1.7602,-1.7524,0,0,0,0,0,-1.7675,-1.7677,-1.7656,-1.7671,-1.7668,-1.7646,-1.7646,-1.763,-1.7621,-1.7617,-1.7604,-1.7595,-1.7595,-1.7595,-1.7593,-1.7612,-1.7607,-1.7622,-1.7628,-1.7632,-1.7635,-1.7643,-1.765,-1.7583,-1.7583,-1.7583,0,0,-1.7697,-1.7684,-1.7687,-1.7679,-1.7671,-1.7674,-1.7644,-1.7648,-1.765,-1.7618,-1.7625,-1.7616,-1.7604,-1.7619,-1.7624,-1.7612,-1.7652,-1.7636,-1.764,-1.7639,-1.7647,-1.7653,-1.7659,-1.7585,-1.7585,-1.7584,0,0,-1.7739,-1.773,-1.7741,-1.7733,-1.7722,-1.7707,-1.771,-1.7693,-1.7685,-1.7693,-1.7668,-1.7671,-1.7671,-1.7663,-1.766,-1.77,-1.7681,-1.7701,-1.7729,-1.7738,-1.7743,-1.7748,-1.7761,-1.7767,-1.7703,-1.7704,-1.7704,0,-1.7767,-1.7771,-1.7749,-1.7755,-1.7752,-1.7723,-1.7734,-1.7729,-1.7717,-1.7716,-1.7702,-1.7701,-1.7692,-1.7704,-1.7714,-1.7712,-1.7714,-1.7702,-1.7744,-1.7749,-1.7752,-1.7765,-1.777,-1.7706,-1.7706,-1.7705,-1.7705,0,-1.7807,-1.781,-1.7821,-1.781,-1.7809,-1.7817,-1.7797,-1.7798,-1.7783,-1.777,-1.7778,-1.7766,-1.7762,-1.7764,-1.7749,-1.7774,-1.7766,-1.7749,-1.7724,-1.7761,-1.7773,-1.7778,-1.7709,-1.7708,-1.7708,-1.7707,0,0,-1.7872,-1.785,-1.7854,-1.7849,-1.7834,-1.7836,-1.7844,-1.784,-1.7841,-1.7834,-1.784,-1.7841,-1.7825,-1.7821,-1.7806,-1.7814,-1.7846,-1.7795,-1.7795,-1.7804,-1.7871,-1.7883,-1.7889,-1.7834,-1.7835,-1.7835,-1.7872,0,-1.791,-1.7921,-1.7902,-1.7918,-1.792,-1.7894,-1.7901,-1.7892,-1.7881,-1.7882,-1.7869,-1.787,-1.7849,-1.7847,-1.7854,-1.784,-1.7859,-1.7838,-1.7838,-1.7838,-1.784,-1.7895,-1.7908,-1.7943,-1.7876,-1.7877,-1.7878,0,-1.7955,-1.7951,-1.7967,-1.7951,-1.7952,-1.7958,-1.7952,-1.7953,-1.7944,-1.7935,-1.7931,-1.7913,-1.792,-1.7898,-1.7906,-1.7892,-1.7891,-1.7885,-1.7886,-1.7884,-1.7859,-1.7894,-1.7954,-1.7958,-1.7885,-1.7884,-1.7883,0,-1.8,-1.7998,-1.8007,-1.8004,-1.7987,-1.7992,-1.7985,-1.7974,-1.7973,-1.7968,-1.7967,-1.7963,-1.7961,-1.7959,-1.794,-1.7926,-1.7951,-1.7927,-1.7943,-1.7944,-1.7948,-1.7948,-1.8008,-1.7951,-1.795,-1.795,-1.795,0,-1.8043,-1.8054,-1.8027,-1.8033,-1.8044,-1.8023,-1.8034,-1.8025,-1.8016,-1.8019,-1.7996,-1.8,-1.7976,-1.7977,-1.7963,-1.7972,-1.7972,-1.7964,-1.796,-1.7965,-1.7966,-1.7963,-1.796,-1.7952,-1.7951,-1.7951,-1.7951,0,-1.8094,-1.8077,-1.8085,-1.8069,-1.8065,-1.8074,-1.8059,-1.8064,-1.8051,-1.8056,-1.8056,-1.8036,-1.8037,-1.8018,-1.8015,-1.8006,-1.802,-1.8012,-1.8023,-1.802,-1.8037,-1.8035,-1.8096,-1.8102,-1.8042,-1.8043,-1.8043,0,-1.8122,-1.813,-1.8114,-1.8115,-1.8109,-1.811,-1.8109,-1.8088,-1.8087,-1.8078,-1.8083,-1.8082,-1.8079,-1.8081,-1.8066,-1.8064,-1.8055,-1.8076,-1.8054,-1.8059,-1.8054,-1.8053,-1.8053,-1.8081,-1.8081,-1.8082,-1.8082,0,-1.8174,-1.8165,-1.8164,-1.816,-1.8159,-1.8155,-1.8149,-1.8151,-1.8128,-1.8129,-1.8129,-1.8127,-1.8124,-1.8122,-1.8117,-1.811,-1.8092,-1.809,-1.8093,-1.8098,-1.8104,-1.81,-1.8034,-1.8088,-1.8088,-1.8087,-1.8087,-1.8087,-1.8213,-1.8219,-1.8208,-1.8208,-1.8202,-1.8197,-1.82,-1.8189,-1.8188,-1.8184,-1.8172,-1.8174,-1.8165,-1.8156,-1.815,-1.8152,-1.8141,-1.8146,-1.8147,-1.8148,-1.8151,-1.8105,-1.8151,-1.8151,-1.815,-1.815,-1.815,0,-1.8263,-1.8255,-1.8255,-1.8248,-1.8247,-1.8232,-1.8225,-1.8225,-1.8227,-1.822,-1.8218,-1.8219,-1.8217,-1.8203,-1.82,-1.8204,-1.8196,-1.8204,-1.8203,-1.8201,-1.8161,-1.8158,-1.821,-1.821,-1.821,-1.821,-1.821,-1.821,-1.8288,-1.8296,-1.8286,-1.8292,-1.8284,-1.8285,-1.8283,-1.8278,-1.8273,-1.8274,-1.8272,-1.8264,-1.8254,-1.825,-1.8248,-1.8244,-1.8243,-1.8254,-1.8247,-1.821,-1.8204,-1.8198,-1.8195,-1.8254,-1.8254,-1.8287,-1.8287,-1.8287]},{"header":{"parameterUnit":"m.s-1","parameterCategory":1,"la1":30.2991,"la2":30.254,"lo1":-89.0895,"lo2":-89.0444,"dy":0.0017,"dx":0.0017,"nx":28,"ny":28,"refTime":"2024-05-08T03:00:00:Z","depth":0,"parameterNumber":3,"parameterNumberName":"V-component_of_WINDS"},"data":[0,0,0,0,0,0,0,0,0,0,0,0,0,0,0,0,0,0,0,0,0,0,0,0,0,0,0,0,0,0,0,0,0,0,0,0,0,0,0,0,0,0,0,0,0,0,0,0,0,0,0,0,0,0,0,0,0,0,5.5495,5.5495,0,5.5532,5.5533,5.5533,5.5521,5.5521,5.552,5.5519,5.5553,5.5555,5.5556,0,0,0,0,0,0,0,0,0,0,0,0,0,5.5411,5.5412,5.5495,5.5495,5.5496,5.5532,5.5533,5.5533,5.5521,5.5521,5.552,5.5519,5.5553,5.5554,5.5556,0,0,0,0,0,0,0,0,0,0,0,0,0,5.5447,5.5413,5.5495,5.5494,5.5495,5.5532,5.5533,5.5533,5.5522,5.5521,5.5519,5.5518,5.5552,5.5554,5.5557,5.5595,0,0,5.5564,5.5565,0,0,0,0,0,0,0,0,5.5445,5.5451,5.5494,5.5494,5.5495,5.5521,5.5515,5.5554,5.5522,5.5511,5.5519,5.5518,5.5543,5.5546,5.5556,5.5597,5.5598,5.5564,5.5566,5.5567,5.5568,0,0,0,0,0,0,0,5.5443,5.5449,5.5509,5.5495,5.5495,5.5492,5.5496,5.5523,5.5533,5.5512,5.5511,5.5516,5.5543,5.5553,5.5556,5.5599,5.5564,5.5566,5.5568,5.5569,5.5675,5.5677,0,0,0,0,0,0,5.544,5.5447,5.5508,5.5511,5.5467,5.5494,5.5498,5.5514,5.5533,5.5535,5.5517,5.5516,5.555,5.5553,5.5557,5.5605,5.5567,5.5569,5.5571,5.5674,5.5676,5.5677,0,0,0,0,0,0,5.5439,5.5446,5.5507,5.5479,5.5486,5.5497,5.5514,5.5515,5.5525,5.5537,5.5538,5.5526,5.5549,5.5554,5.5587,5.5606,5.557,5.5573,5.5673,5.5675,5.5677,5.57,0,0,0,0,0,0,5.5436,5.5446,5.5461,5.5479,5.5488,5.5536,5.5515,5.5517,5.553,5.5528,5.5545,5.5547,5.5548,5.5583,5.5589,5.5609,5.5574,5.5671,5.5673,5.5676,5.5698,5.5703,5.5707,0,0,0,0,0,5.5433,5.5464,5.5461,5.5469,5.5507,5.5537,5.5542,5.5544,5.5532,5.5547,5.5555,5.5546,5.5603,5.5587,5.5593,5.5614,5.567,5.5673,5.5676,5.5695,5.5702,5.5707,0,0,0,0,0,0,5.5445,5.5466,5.5464,5.5501,5.5518,5.5535,5.5554,5.555,5.5569,5.5567,5.5568,5.5571,5.5605,5.5613,5.5594,5.5653,5.5634,5.5639,5.5647,5.5653,5.5658,5.5655,5.5576,0,0,0,0,0,5.5453,5.5477,5.5493,5.5525,5.5534,5.5543,5.5556,5.5557,5.5573,5.5579,5.5589,5.5605,5.5626,5.564,5.566,5.5699,5.5703,5.5717,5.5721,5.5725,5.5729,5.5752,5.5758,5.5687,5.5687,5.5687,0,0,5.5467,5.5482,5.5497,5.5528,5.5541,5.5565,5.5548,5.5574,5.5592,5.5583,5.5615,5.5623,5.564,5.5677,5.5693,5.5684,5.575,5.5729,5.5732,5.5734,5.5756,5.5762,5.5768,5.5689,5.5689,5.5689,0,0,5.5507,5.552,5.5549,5.5564,5.5584,5.559,5.5597,5.5616,5.5622,5.5655,5.5649,5.567,5.5706,5.5719,5.5731,5.5779,5.5772,5.5785,5.581,5.5832,5.5837,5.5842,5.5861,5.5867,5.5789,5.5789,5.5789,0,5.5522,5.556,5.5564,5.5592,5.5606,5.5602,5.5631,5.5644,5.5669,5.5679,5.5669,5.5717,5.5727,5.5768,5.578,5.5789,5.5797,5.5783,5.5837,5.5842,5.5846,5.5864,5.587,5.5791,5.5791,5.579,5.579,0,5.5578,5.5605,5.5626,5.5653,5.567,5.5698,5.5706,5.5723,5.5723,5.573,5.5764,5.5778,5.5802,5.5811,5.581,5.5852,5.5846,5.5836,5.5817,5.5855,5.5871,5.5877,5.5793,5.5792,5.5792,5.5791,0,0,5.5624,5.5657,5.5664,5.5678,5.5702,5.5722,5.575,5.5776,5.579,5.5808,5.5832,5.5865,5.5857,5.587,5.5871,5.589,5.5929,5.5878,5.5879,5.5888,5.5977,5.5985,5.5993,5.5925,5.5927,5.5928,5.5976,0,5.5666,5.5719,5.5725,5.5771,5.5796,5.5793,5.5818,5.5835,5.5843,5.5865,5.5873,5.5897,5.5884,5.5892,5.5911,5.592,5.5947,5.5917,5.5947,5.5948,5.5944,5.6001,5.6009,5.6054,5.5983,5.5984,5.5984,0,5.5722,5.5745,5.5795,5.5818,5.5828,5.5851,5.5876,5.5897,5.5917,5.5921,5.5938,5.5937,5.5966,5.5947,5.5987,5.5967,5.598,5.5986,5.5988,5.5991,5.5969,5.6006,5.6068,5.6075,5.5994,5.5993,5.5993,0,5.5752,5.5795,5.5831,5.5843,5.587,5.5886,5.5898,5.5917,5.5933,5.5954,5.5965,5.5988,5.6002,5.602,5.6025,5.6011,5.6066,5.6047,5.6071,5.6071,5.6082,5.6082,5.6148,5.609,5.609,5.609,5.609,0,5.5799,5.5829,5.5846,5.5868,5.5902,5.5909,5.5942,5.5953,5.5971,5.5994,5.5992,5.6014,5.602,5.6043,5.6048,5.6082,5.6087,5.6091,5.6092,5.6092,5.6092,5.61,5.6097,5.6092,5.6091,5.6091,5.6091,0,5.5838,5.585,5.5889,5.5913,5.592,5.5944,5.5964,5.5986,5.5994,5.6025,5.6032,5.6045,5.6073,5.6081,5.6112,5.6115,5.6155,5.6153,5.6149,5.615,5.6174,5.6172,5.6248,5.6259,5.6194,5.6194,5.6195,0,5.5867,5.5891,5.5919,5.5936,5.595,5.5976,5.5993,5.6001,5.6019,5.6045,5.6063,5.6091,5.6113,5.6157,5.6169,5.6194,5.6192,5.6218,5.6196,5.6196,5.6194,5.6193,5.6196,5.6222,5.6222,5.6223,5.6223,0,5.5918,5.5924,5.5949,5.5978,5.6,5.6022,5.6043,5.6057,5.6068,5.6088,5.6117,5.6135,5.6169,5.6197,5.6223,5.6234,5.6231,5.623,5.6237,5.6237,5.6235,5.6238,5.6161,5.6228,5.6228,5.6227,5.6227,5.6227,5.5953,5.5976,5.6,5.6029,5.6047,5.6068,5.609,5.6103,5.6128,5.6158,5.6161,5.6193,5.6214,5.6249,5.6261,5.6286,5.6278,5.6288,5.6291,5.6293,5.6296,5.6231,5.6291,5.629,5.629,5.629,5.629,0,5.6005,5.6021,5.6049,5.608,5.6104,5.6101,5.6125,5.6145,5.6174,5.6194,5.6218,5.6252,5.628,5.6295,5.6322,5.6339,5.6338,5.6346,5.6345,5.6348,5.6301,5.6292,5.6346,5.6346,5.6346,5.6346,5.6346,5.6346,5.6035,5.6073,5.6082,5.6129,5.6145,5.6178,5.6192,5.6212,5.6228,5.6268,5.6292,5.6302,5.6321,5.635,5.6375,5.6379,5.6389,5.6398,5.6401,5.6357,5.6351,5.6345,5.6338,5.64,5.64,5.6446,5.6447,5.6447]}]]